This is the latest recevied weather packets stored in our database for station/object N9ALD. If no packets are shown the sender has not sent any weather packets the latest 10 day(s).
| Time | Temp. | Humidity | Pressure | Rain* | Wind** | Luminosity | Snow |
|---|---|---|---|---|---|---|---|
| 1777584729 | 16.11° C | 42% | 1012 hPa | 0 mm | - | 211 W/m² | - |
| 1777584427 | 16.11° C | 40% | 1012 hPa | 0 mm | - | 216 W/m² | - |
| 1777584123 | 16.67° C | 38% | 1012.1 hPa | 0 mm | - | 190 W/m² | - |
| 1777583822 | 16.67° C | 45% | 1012 hPa | 0 mm | - | 501 W/m² | - |
| 1777583517 | 16.67° C | 42% | 1011.9 hPa | 0 mm | - | 496 W/m² | - |
| 1777583211 | 16.11° C | 43% | 1012.2 hPa | 0 mm | - | 319 W/m² | - |
| 1777582907 | 16.11° C | 41% | 1012.2 hPa | 0 mm | - | 577 W/m² | - |
| 1777582605 | 15.56° C | 44% | 1012.2 hPa | 0 mm | - | 565 W/m² | - |
| 1777582305 | 15.56° C | 42% | 1012.3 hPa | 0 mm | - | 244 W/m² | - |
| 1777582003 | 15.56° C | 43% | 1012.3 hPa | 0 mm | - | 343 W/m² | - |
| 1777581698 | 15.56° C | 42% | 1012.4 hPa | 0 mm | - | 313 W/m² | - |
| 1777581393 | 15.56° C | 46% | 1012.5 hPa | 0 mm | - | 325 W/m² | - |
| 1777581093 | 15° C | 43% | 1012.5 hPa | 0 mm | - | 382 W/m² | - |
| 1777580792 | 15.56° C | 43% | 1012.6 hPa | 0 mm | - | 190 W/m² | - |
| 1777580488 | 16.11° C | 44% | 1012.7 hPa | 0 mm | - | 164 W/m² | - |
| 1777580183 | 16.11° C | 42% | 1012.8 hPa | 0 mm | - | 578 W/m² | - |
| 1777579880 | 16.67° C | 44% | 1013 hPa | 0 mm | - | 274 W/m² | - |
| 1777579580 | 16.67° C | 44% | 1012.9 hPa | 0 mm | - | 335 W/m² | - |
| 1777579274 | 16.67° C | 43% | 1013 hPa | 0 mm | - | 761 W/m² | - |
| 1777578970 | 16.11° C | 47% | 1013 hPa | 0 mm | - | 758 W/m² | - |
| 1777578665 | 15.56° C | 45% | 1013.2 hPa | 0 mm | - | 761 W/m² | - |
| 1777578364 | 15.56° C | 50% | 1013 hPa | 0 mm | - | 737 W/m² | - |
| 1777578061 | 15.56° C | 49% | 1013 hPa | 0 mm | - | 265 W/m² | - |
| 1777577755 | 15.56° C | 47% | 1013.2 hPa | 0 mm | - | 207 W/m² | - |
| 1777577452 | 15.56° C | 48% | 1013.2 hPa | 0 mm | - | 738 W/m² | - |
* Rain latest hour (hover to see other rain measurements)
** Current wind speed in m/s (hover to see current wind gust speed)